[[{"header":{"parameterUnit":"m.s-1","parameterCategory":1,"la1":30.2991,"la2":30.254,"lo1":-89.0895,"lo2":-89.0444,"dy":0.0017,"dx":0.0017,"nx":28,"ny":28,"refTime":"2025-07-29T21:00:00:Z","depth":0,"parameterNumber":2,"parameterNumberName":"U-component_of_WINDS"},"data":[0,0,0,0,0,0,0,0,0,0,0,0,0,0,0,0,0,0,0,0,0,0,0,0,0,0,0,0,0,0,0,0,0,0,0,0,0,0,0,0,0,0,0,0,0,0,0,0,0,0,0,0,0,0,0,0,0,0,0.9918,0.9919,0,0.9988,0.9989,0.9989,0.9964,0.9962,0.9961,0.9959,1.0035,1.0038,1.0042,0,0,0,0,0,0,0,0,0,0,0,0,0,0.9765,0.9768,0.9918,0.9919,0.992,0.9988,0.9989,0.999,0.9964,0.9962,0.996,0.9958,1.0034,1.0038,1.0042,0,0,0,0,0,0,0,0,0,0,0,0,0,0.9833,0.9769,0.9918,0.9915,0.9915,0.9988,0.9989,0.999,0.9965,0.9962,0.996,0.9958,1.0033,1.0038,1.0043,1.0123,0,0,1.0059,1.0061,0,0,0,0,0,0,0,0,0.9829,0.9839,0.9915,0.9915,0.9916,0.9965,0.9963,1.0035,0.9965,0.9946,0.9959,0.9956,1.0014,1.002,1.0039,1.0127,1.013,1.0059,1.0063,1.0065,1.0066,0,0,0,0,0,0,0,0.9825,0.9836,0.9946,0.9916,0.9917,0.9911,0.9918,0.9976,0.9993,0.9948,0.9946,0.9954,1.0014,1.0034,1.0041,1.0131,1.0059,1.0064,1.0067,1.0069,1.0288,1.029,0,0,0,0,0,0,0.9819,0.9832,0.9943,0.9948,0.9866,0.9916,0.9924,0.9952,0.9992,0.9996,0.9956,0.9953,1.0026,1.0034,1.0043,1.014,1.0065,1.007,1.0073,1.0285,1.0288,1.0291,0,0,0,0,0,0,0.9816,0.9829,0.9941,0.9889,0.9903,0.9921,0.9952,0.9954,0.9974,0.9998,1.0002,0.9974,1.0025,1.0036,1.0103,1.0142,1.0072,1.0077,1.0282,1.0286,1.029,1.0334,0,0,0,0,0,0,0.9812,0.9828,0.9858,0.989,0.9906,0.9999,0.9955,0.9957,0.9983,0.9979,1.0016,1.0019,1.0024,1.0095,1.0108,1.0148,1.0081,1.0279,1.0284,1.0289,1.0329,1.0339,1.0348,0,0,0,0,0,0.9806,0.9869,0.986,0.9874,0.9944,1.0001,1.001,1.0012,0.9986,1.0017,1.0032,1.0018,1.0135,1.0102,1.0117,1.0159,1.0276,1.0282,1.0288,1.0325,1.0337,1.0347,0,0,0,0,0,0,0.9843,0.9873,0.9864,0.9938,0.9967,0.9996,1.0036,1.0025,1.0063,1.0058,1.0061,1.0069,1.0138,1.0155,1.0118,1.0239,1.0202,1.0211,1.0225,1.0237,1.0246,1.0241,1.0085,0,0,0,0,0,0.986,0.9902,0.9927,0.999,1.0005,1.0018,1.0043,1.0042,1.0072,1.0085,1.0105,1.0137,1.018,1.0209,1.0251,1.0331,1.0339,1.0367,1.0376,1.0383,1.0392,1.0436,1.0449,1.0311,1.0311,1.0311,0,0,0.9895,0.9916,0.9944,0.9998,1.002,1.0066,1.0028,1.0078,1.0112,1.0093,1.0158,1.0173,1.0208,1.0282,1.0316,1.0299,1.0431,1.0391,1.0397,1.0401,1.0443,1.0456,1.0468,1.0315,1.0314,1.0314,0,0,0.9982,1.0002,1.0058,1.008,1.0114,1.0121,1.0135,1.0165,1.0175,1.0239,1.0226,1.0266,1.0342,1.0367,1.039,1.0486,1.0474,1.0499,1.0548,1.059,1.0601,1.0611,1.0646,1.0658,1.0507,1.0507,1.0507,0,1.0022,1.0089,1.0088,1.0138,1.0163,1.0146,1.0202,1.0225,1.0271,1.0289,1.0268,1.0361,1.0384,1.0463,1.0486,1.0505,1.0521,1.0496,1.0599,1.0609,1.0618,1.0651,1.0664,1.051,1.051,1.0509,1.0509,0,1.0137,1.0183,1.0224,1.0267,1.0296,1.035,1.0357,1.0387,1.0383,1.0393,1.0459,1.0485,1.0532,1.055,1.0547,1.063,1.0618,1.0598,1.0562,1.0634,1.0665,1.0678,1.0514,1.0513,1.0512,1.0511,0,0,1.0252,1.0292,1.0307,1.0326,1.0361,1.0398,1.045,1.0494,1.052,1.0552,1.0597,1.066,1.0642,1.0667,1.0667,1.0705,1.0779,1.068,1.0681,1.0699,1.0872,1.0887,1.0902,1.0771,1.0773,1.0775,1.0869,0,1.0343,1.0434,1.0434,1.0518,1.0561,1.0545,1.0591,1.0618,1.0628,1.0667,1.0679,1.0724,1.0696,1.0712,1.0747,1.0762,1.0814,1.0755,1.0814,1.0816,1.0807,1.0918,1.0935,1.1023,1.0881,1.0883,1.0885,0,1.0461,1.0496,1.0584,1.0612,1.063,1.0672,1.0712,1.0748,1.0779,1.0784,1.0812,1.0805,1.086,1.082,1.0895,1.0855,1.0879,1.089,1.0893,1.09,1.0856,1.0929,1.105,1.1064,1.0904,1.0903,1.0901,0,1.0537,1.0605,1.0667,1.0684,1.0718,1.0747,1.0763,1.0791,1.0817,1.0852,1.0869,1.0911,1.0934,1.0966,1.0972,1.0942,1.1047,1.1008,1.1054,1.1054,1.1079,1.1077,1.1206,1.1092,1.1091,1.1091,1.1091,0,1.064,1.0695,1.0702,1.074,1.0801,1.08,1.0861,1.0875,1.0899,1.094,1.0928,1.0967,1.0971,1.1012,1.1016,1.1078,1.1088,1.1095,1.1096,1.1097,1.1096,1.1113,1.1108,1.1095,1.1094,1.1093,1.1093,0,1.0736,1.0742,1.0809,1.0835,1.0843,1.0887,1.0909,1.0946,1.0955,1.1007,1.1019,1.1033,1.108,1.1088,1.1143,1.1146,1.122,1.1214,1.121,1.121,1.1256,1.1252,1.1402,1.1422,1.1293,1.1294,1.1295,0,1.0802,1.0843,1.0873,1.0899,1.0916,1.0958,1.0985,1.0985,1.1013,1.105,1.1083,1.1128,1.1164,1.124,1.1255,1.1298,1.1293,1.1343,1.13,1.1299,1.1295,1.1293,1.1298,1.1352,1.1353,1.1354,1.1355,0,1.0918,1.0919,1.0956,1.0995,1.1026,1.1057,1.1086,1.1109,1.1113,1.1145,1.1192,1.122,1.1275,1.1321,1.1362,1.1379,1.1369,1.1368,1.1381,1.1384,1.138,1.1383,1.1234,1.1365,1.1364,1.1364,1.1363,1.1363,1.1002,1.1038,1.1064,1.1107,1.1128,1.1155,1.1191,1.1203,1.1242,1.1287,1.1285,1.1336,1.1365,1.1419,1.1439,1.148,1.1464,1.1483,1.1488,1.1493,1.1498,1.1372,1.1487,1.1487,1.1487,1.1487,1.1486,0,1.1118,1.1134,1.1173,1.1213,1.1246,1.1231,1.1262,1.1291,1.1337,1.1364,1.1399,1.1453,1.1496,1.1514,1.1557,1.1587,1.1583,1.1598,1.1597,1.1601,1.1509,1.1494,1.16,1.16,1.16,1.16,1.16,1.16,1.1183,1.1243,1.1247,1.1318,1.1334,1.1384,1.1403,1.1428,1.1449,1.151,1.1545,1.1556,1.158,1.1624,1.1663,1.1667,1.1684,1.1702,1.1704,1.1619,1.1607,1.1596,1.1582,1.1706,1.1706,1.1793,1.1794,1.1794]},{"header":{"parameterUnit":"m.s-1","parameterCategory":1,"la1":30.2991,"la2":30.254,"lo1":-89.0895,"lo2":-89.0444,"dy":0.0017,"dx":0.0017,"nx":28,"ny":28,"refTime":"2025-07-29T21:00:00:Z","depth":0,"parameterNumber":3,"parameterNumberName":"V-component_of_WINDS"},"data":[0,0,0,0,0,0,0,0,0,0,0,0,0,0,0,0,0,0,0,0,0,0,0,0,0,0,0,0,0,0,0,0,0,0,0,0,0,0,0,0,0,0,0,0,0,0,0,0,0,0,0,0,0,0,0,0,0,0,2.5044,2.5044,0,2.5003,2.5003,2.5002,2.5,2.5001,2.5001,2.5002,2.4955,2.4953,2.4951,0,0,0,0,0,0,0,0,0,0,0,0,0,2.5114,2.5113,2.5044,2.5043,2.5043,2.5003,2.5003,2.5002,2.5,2.5001,2.5002,2.5002,2.4955,2.4953,2.4951,0,0,0,0,0,0,0,0,0,0,0,0,0,2.5079,2.5112,2.5044,2.5037,2.5036,2.5003,2.5003,2.5002,2.5,2.5001,2.5002,2.5002,2.4956,2.4953,2.4951,2.492,0,0,2.4943,2.4942,0,0,0,0,0,0,0,0,2.5081,2.5077,2.5039,2.5038,2.5037,2.5008,2.501,2.4974,2.5,2.5014,2.5002,2.5003,2.4971,2.4967,2.4958,2.4918,2.4916,2.4943,2.4941,2.494,2.4939,0,0,0,0,0,0,0,2.5084,2.5079,2.5028,2.5038,2.5037,2.5034,2.503,2.5003,2.4989,2.5013,2.5012,2.5008,2.4971,2.4961,2.4957,2.4915,2.4943,2.494,2.4939,2.4938,2.4844,2.4843,0,0,0,0,0,0,2.5088,2.5081,2.5029,2.5026,2.5062,2.5033,2.5028,2.5016,2.4989,2.4986,2.5007,2.5008,2.4965,2.496,2.4955,2.4915,2.494,2.4938,2.4936,2.4845,2.4844,2.4843,0,0,0,0,0,0,2.509,2.5084,2.5031,2.5053,2.5047,2.5031,2.5017,2.5015,2.5005,2.4985,2.4982,2.5,2.4965,2.4959,2.4928,2.4914,2.4936,2.4934,2.4846,2.4845,2.4843,2.4836,0,0,0,0,0,0,2.5092,2.5084,2.5074,2.5053,2.5045,2.5006,2.5017,2.5014,2.5001,2.5001,2.4977,2.4974,2.4965,2.4932,2.4926,2.491,2.4932,2.4847,2.4845,2.4844,2.4838,2.4835,2.4832,0,0,0,0,0,2.5094,2.5073,2.5074,2.5067,2.5032,2.5006,2.5001,2.4993,2.5,2.4988,2.4975,2.4975,2.4917,2.4929,2.4922,2.4905,2.4848,2.4846,2.4844,2.4839,2.4835,2.4832,0,0,0,0,0,0,2.5091,2.507,2.5071,2.5042,2.5026,2.5005,2.4991,2.499,2.4969,2.4971,2.496,2.4954,2.4923,2.4912,2.4926,2.4873,2.4883,2.4879,2.4881,2.4878,2.4875,2.4878,2.493,0,0,0,0,0,2.5087,2.5069,2.5051,2.5028,2.502,2.5007,2.4995,2.499,2.4972,2.4964,2.4949,2.493,2.4907,2.4892,2.487,2.4836,2.4829,2.4821,2.4818,2.4816,2.4813,2.4791,2.4786,2.4836,2.4836,2.4836,0,0,2.5078,2.5065,2.5054,2.5027,2.5013,2.4993,2.5001,2.4979,2.4962,2.496,2.493,2.4919,2.4896,2.4863,2.4848,2.4852,2.4797,2.4814,2.4812,2.4809,2.4788,2.4783,2.4779,2.4834,2.4835,2.4835,0,0,2.5052,2.5041,2.5019,2.5006,2.4986,2.4977,2.4972,2.4952,2.4944,2.4914,2.4912,2.4891,2.4853,2.4836,2.4823,2.4788,2.4786,2.4781,2.4766,2.4745,2.4741,2.4738,2.4723,2.4718,2.4778,2.4778,2.4778,0,2.5043,2.5014,2.5008,2.4986,2.4972,2.4971,2.4947,2.4934,2.4907,2.4897,2.4903,2.4854,2.4839,2.4801,2.4792,2.4782,2.4774,2.4783,2.4743,2.4739,2.4736,2.4721,2.4716,2.4778,2.4778,2.4778,2.4778,0,2.5002,2.4982,2.4966,2.4942,2.4927,2.4904,2.4893,2.4878,2.4874,2.4864,2.4832,2.4814,2.4788,2.4779,2.4774,2.4739,2.4742,2.4746,2.4755,2.473,2.4717,2.4711,2.4777,2.4777,2.4777,2.4777,0,0,2.4972,2.4944,2.4938,2.4926,2.4904,2.4887,2.4863,2.4838,2.4825,2.4806,2.4784,2.4751,2.4754,2.4738,2.4732,2.4714,2.4684,2.4719,2.4718,2.4711,2.4641,2.4637,2.4631,2.4684,2.4683,2.4682,2.4642,0,2.4941,2.49,2.4894,2.4857,2.4836,2.4834,2.4812,2.4795,2.4785,2.4764,2.4751,2.4727,2.4734,2.4725,2.4707,2.4692,2.467,2.4695,2.466,2.4658,2.4663,2.4624,2.462,2.4583,2.4637,2.4636,2.4635,0,2.4899,2.4881,2.4842,2.4821,2.4812,2.4793,2.4769,2.475,2.4729,2.4723,2.4705,2.4701,2.4673,2.4685,2.4645,2.4662,2.4647,2.4637,2.4635,2.463,2.4644,2.4615,2.4571,2.4565,2.4627,2.4628,2.4628,0,2.4878,2.4843,2.4815,2.4805,2.478,2.4767,2.4755,2.4736,2.472,2.4699,2.4688,2.4663,2.4648,2.4628,2.4615,2.4626,2.4575,2.4587,2.4566,2.4566,2.4554,2.4554,2.4505,2.4548,2.4548,2.4548,2.4548,0,2.4843,2.4819,2.4805,2.4787,2.4759,2.4751,2.4723,2.4711,2.4693,2.4671,2.4668,2.4647,2.4633,2.461,2.46,2.4566,2.456,2.4552,2.4549,2.4551,2.4551,2.4539,2.454,2.4547,2.4547,2.4547,2.4548,0,2.4814,2.4804,2.4773,2.4752,2.4746,2.4726,2.4707,2.4688,2.4678,2.465,2.4643,2.4625,2.4597,2.4584,2.4548,2.4541,2.4502,2.4502,2.451,2.4508,2.4487,2.4488,2.4426,2.4416,2.4468,2.4468,2.4467,0,2.4791,2.4772,2.475,2.4736,2.4724,2.4702,2.4686,2.4677,2.4661,2.4635,2.4618,2.4591,2.4568,2.4522,2.4504,2.4477,2.4474,2.4454,2.447,2.4471,2.447,2.4471,2.4467,2.4451,2.445,2.445,2.445,0,2.4751,2.4747,2.4726,2.4703,2.4685,2.4666,2.4647,2.4635,2.4622,2.4603,2.4575,2.4558,2.4522,2.4492,2.4463,2.4449,2.4445,2.4445,2.4438,2.4439,2.4443,2.4437,2.4499,2.4446,2.4446,2.4447,2.4447,2.4447,2.4722,2.4705,2.4686,2.4662,2.4647,2.4629,2.461,2.4597,2.4574,2.4545,2.4541,2.451,2.4487,2.4448,2.4432,2.4406,2.441,2.4401,2.4398,2.4395,2.4392,2.4449,2.4401,2.4401,2.4401,2.4401,2.4401,0,2.468,2.4667,2.4646,2.462,2.46,2.4602,2.458,2.4563,2.4537,2.4517,2.4494,2.446,2.4431,2.4412,2.4382,2.4365,2.4362,2.4357,2.4357,2.4353,2.4392,2.44,2.4359,2.4359,2.4359,2.4359,2.4359,2.4359,2.4655,2.4625,2.4618,2.4579,2.4566,2.4537,2.4525,2.4507,2.4491,2.4454,2.443,2.4419,2.4397,2.4366,2.4339,2.4333,2.4321,2.4315,2.431,2.4346,2.435,2.4354,2.4361,2.4314,2.4314,2.4272,2.4272,2.4271]}]]